When you browse on this site, cookies collect data to enhance your experience and personalize the content and advertising you see.
Visit our Privacy Policy to learn more. By continuing to use the site, you agree to this use of cookies and data.
  • In Latvia
  • List of Countries
  • For 7 days
  • Water Temperature
  • Satellite Maps
  • Weather Map
  • Weather Widgets
  • user-avatar
    Login

    Hourly Weather Weston

    Today, 22 January, Tuesday

    Time Temperature Precipitation Wind Pressure Humidity
    00:00 +19°C° 0 mm 4 mps 769 mmHg 67%
    01:00 +19°C° 0 mm 4 mps 769 mmHg 68%
    02:00 +19°C° 0 mm 5 mps 769 mmHg 67%
    03:00 +19°C° 0 mm 5 mps 769 mmHg 66%
    04:00 +20°C° 0 mm 5 mps 768 mmHg 66%
    05:00 +20°C° 0 mm 5 mps 769 mmHg 67%
    06:00 +19°C° 0 mm 5 mps 769 mmHg 69%
    07:00 +19°C° 0 mm 5 mps 769 mmHg 70%
    08:00 +20°C° 0 mm 6 mps 769 mmHg 67%
    09:00 +21°C° 0 mm 7 mps 770 mmHg 64%
    10:00 +23°C° 0 mm 8 mps 770 mmHg 61%
    11:00 +22°C° 0 mm 8 mps 770 mmHg 62%
    12:00 +22°C° 0 mm 8 mps 770 mmHg 62%
    13:00 +22°C° 0 mm 7 mps 769 mmHg 63%
    14:00 +22°C° 0 mm 7 mps 769 mmHg 63%
    15:00 +22°C° 0 mm 7 mps 769 mmHg 63%
    16:00 +22°C° 0 mm 7 mps 768 mmHg 64%
    17:00 +22°C° 0 mm 6 mps 768 mmHg 64%
    18:00 +22°C° 0 mm 6 mps 769 mmHg 64%
    19:00 +22°C° 0 mm 6 mps 769 mmHg 65%
    20:00 +22°C° 0.1 mm 6 mps 769 mmHg 65%
    21:00 +22°C° 0.1 mm 6 mps 769 mmHg 66%
    22:00 +22°C° 0.1 mm 6 mps 769 mmHg 66%
    23:00 +22°C° 0.1 mm 6 mps 769 mmHg 66%

    Tomorrow, 23 January, Wednesday

    Time Temperature Precipitation Wind Pressure Humidity
    00:00 +22°C° 0.1 mm 6 mps 768 mmHg 66%
    01:00 +22°C° 0.1 mm 6 mps 768 mmHg 66%
    02:00 +22°C° 0.1 mm 6 mps 767 mmHg 67%
    03:00 +22°C° 0.1 mm 6 mps 767 mmHg 67%
    04:00 +22°C° 0.1 mm 5 mps 767 mmHg 67%
    05:00 +22°C° 0 mm 5 mps 767 mmHg 68%
    06:00 +22°C° 0 mm 5 mps 767 mmHg 69%
    07:00 +22°C° 0 mm 5 mps 767 mmHg 70%
    08:00 +23°C° 0 mm 5 mps 767 mmHg 67%
    09:00 +24°C° 0 mm 6 mps 767 mmHg 63%
    10:00 +24°C° 0 mm 7 mps 767 mmHg 60%
    11:00 +26°C° 0 mm 7 mps 767 mmHg 59%
    12:00 +27°C° 0 mm 7 mps 766 mmHg 59%
    13:00 +27°C° 0 mm 7 mps 766 mmHg 58%
    14:00 +27°C° 0 mm 6 mps 765 mmHg 60%
    15:00 +27°C° 0 mm 6 mps 764 mmHg 62%
    16:00 +27°C° 0 mm 6 mps 763 mmHg 64%
    17:00 +27°C° 0 mm 6 mps 764 mmHg 67%
    18:00 +26°C° 0 mm 6 mps 764 mmHg 69%
    19:00 +26°C° 0 mm 5 mps 764 mmHg 72%
    20:00 +26°C° 0 mm 6 mps 763 mmHg 74%
    21:00 +26°C° 0 mm 6 mps 763 mmHg 75%
    22:00 +26°C° 0 mm 6 mps 763 mmHg 76%
    23:00 +26°C° 0.1 mm 6 mps 763 mmHg 78%

    Day after tomorrow, 24 January, Thursday

    Time Temperature Precipitation Wind Pressure Humidity
    00:00 +26°C° 0.1 mm 6 mps 762 mmHg 79%
    01:00 +24°C° 0.1 mm 6 mps 762 mmHg 81%
    02:00 +24°C° 0.1 mm 6 mps 761 mmHg 81%
    03:00 +25°C° 0.1 mm 5 mps 761 mmHg 82%
    04:00 +25°C° 0.1 mm 5 mps 761 mmHg 82%
    05:00 +25°C° 0.1 mm 5 mps 761 mmHg 83%
    06:00 +25°C° 0.1 mm 5 mps 761 mmHg 85%
    07:00 +25°C° 0.1 mm 5 mps 761 mmHg 86%
    08:00 +26°C° 0.4 mm 5 mps 761 mmHg 81%
    09:00 +26°C° 0.4 mm 6 mps 762 mmHg 76%
    10:00 +27°C° 0.4 mm 6 mps 763 mmHg 70%
    11:00 +27°C° 0.2 mm 6 mps 762 mmHg 68%
    12:00 +28°C° 0.2 mm 6 mps 762 mmHg 65%
    13:00 +28°C° 0.2 mm 6 mps 762 mmHg 63%
    14:00 +27°C° 1 mm 5 mps 762 mmHg 68%
    15:00 +26°C° 1 mm 5 mps 761 mmHg 73%
    16:00 +25°C° 1 mm 4 mps 761 mmHg 78%
    17:00 +23°C° 0.4 mm 4 mps 762 mmHg 80%
    18:00 +22°C° 0.4 mm 4 mps 762 mmHg 82%
    19:00 +21°C° 0.4 mm 4 mps 763 mmHg 84%
    20:00 +21°C° 0 mm 4 mps 763 mmHg 80%
    21:00 +20°C° 0 mm 3 mps 763 mmHg 77%
    22:00 +20°C° 0 mm 3 mps 764 mmHg 74%
    23:00 +19°C° 0 mm 3 mps 764 mmHg 72%

    25 January, Friday

    Time Temperature Precipitation Wind Pressure Humidity
    00:00 +19°C° 0 mm 3 mps 763 mmHg 70%
    01:00 +18°C° 0 mm 4 mps 763 mmHg 69%
    02:00 +18°C° 0 mm 4 mps 763 mmHg 67%
    03:00 +17°C° 0 mm 4 mps 763 mmHg 65%
    04:00 +17°C° 0 mm 4 mps 763 mmHg 62%
    05:00 +15°C° 0 mm 4 mps 763 mmHg 64%
    06:00 +15°C° 0 mm 4 mps 764 mmHg 65%
    07:00 +15°C° 0 mm 4 mps 764 mmHg 66%
    08:00 +15°C° 0 mm 5 mps 765 mmHg 65%
    09:00 +16°C° 0 mm 5 mps 765 mmHg 64%
    10:00 +16°C° 0 mm 5 mps 766 mmHg 63%
    11:00 +19°C° 0 mm 5 mps 765 mmHg 59%
    12:00 +21°C° 0 mm 4 mps 765 mmHg 55%
    13:00 +22°C° 0 mm 4 mps 764 mmHg 51%
    14:00 +22°C° 0 mm 4 mps 764 mmHg 51%
    15:00 +23°C° 0 mm 4 mps 763 mmHg 50%
    16:00 +23°C° 0 mm 4 mps 763 mmHg 50%
    17:00 +21°C° 0 mm 5 mps 764 mmHg 51%
    18:00 +20°C° 0 mm 5 mps 764 mmHg 53%
    19:00 +19°C° 0 mm 5 mps 765 mmHg 54%
    20:00 +17°C° 0 mm 5 mps 765 mmHg 57%
    21:00 +17°C° 0 mm 5 mps 765 mmHg 59%
    22:00 +16°C° 0 mm 5 mps 766 mmHg 62%
    23:00 +16°C° 0 mm 5 mps 766 mmHg 64%

    26 January, Saturday

    Time Temperature Precipitation Wind Pressure Humidity
    00:00 +15°C° 0 mm 5 mps 765 mmHg 66%
    01:00 +15°C° 0 mm 5 mps 765 mmHg 68%
    02:00 +15°C° 0 mm 5 mps 765 mmHg 69%
    03:00 +14°C° 0 mm 5 mps 765 mmHg 69%
    04:00 +14°C° 0 mm 5 mps 765 mmHg 70%
    05:00 +14°C° 0 mm 5 mps 765 mmHg 70%
    06:00 +14°C° 0 mm 5 mps 766 mmHg 69%
    07:00 +14°C° 0 mm 5 mps 766 mmHg 69%
    08:00 +16°C° 0 mm 6 mps 766 mmHg 64%
    09:00 +17°C° 0 mm 6 mps 766 mmHg 60%
    10:00 +20°C° 0 mm 6 mps 766 mmHg 55%
    11:00 +21°C° 0 mm 6 mps 766 mmHg 53%
    12:00 +22°C° 0 mm 6 mps 765 mmHg 51%
    13:00 +23°C° 0 mm 6 mps 765 mmHg 49%
    14:00 +22°C° 0 mm 6 mps 764 mmHg 51%
    15:00 +22°C° 0 mm 6 mps 764 mmHg 52%
    16:00 +22°C° 0 mm 6 mps 763 mmHg 54%
    17:00 +21°C° 0 mm 6 mps 764 mmHg 58%
    18:00 +20°C° 0 mm 6 mps 764 mmHg 62%
    19:00 +20°C° 0 mm 5 mps 764 mmHg 66%
    20:00 +20°C° 0.1 mm 5 mps 764 mmHg 67%
    21:00 +20°C° 0.1 mm 5 mps 764 mmHg 68%
    22:00 +20°C° 0.1 mm 5 mps 764 mmHg 70%
    23:00 +20°C° 0.1 mm 4 mps 764 mmHg 71%

    27 January, Sunday

    Time Temperature Precipitation Wind Pressure Humidity
    00:00 +19°C° 0.1 mm 4 mps 764 mmHg 72%
    01:00 +19°C° 0.1 mm 4 mps 763 mmHg 73%
    02:00 +19°C° 0 mm 4 mps 763 mmHg 74%
    03:00 +19°C° 0 mm 4 mps 763 mmHg 75%
    04:00 +19°C° 0 mm 4 mps 762 mmHg 76%
    05:00 +19°C° 0 mm 4 mps 762 mmHg 76%
    06:00 +19°C° 0 mm 5 mps 762 mmHg 75%
    07:00 +19°C° 0 mm 5 mps 762 mmHg 75%
    08:00 +19°C° 0 mm 5 mps 763 mmHg 72%
    09:00 +19°C° 0 mm 6 mps 763 mmHg 69%
    10:00 +20°C° 0 mm 7 mps 763 mmHg 67%
    11:00 +21°C° 0 mm 7 mps 763 mmHg 62%
    12:00 +21°C° 0 mm 7 mps 762 mmHg 57%
    13:00 +22°C° 0 mm 7 mps 762 mmHg 53%
    14:00 +21°C° 0 mm 7 mps 762 mmHg 51%
    15:00 +21°C° 0 mm 7 mps 761 mmHg 50%
    16:00 +20°C° 0 mm 7 mps 761 mmHg 48%
    17:00 +18°C° 0 mm 7 mps 761 mmHg 48%
    18:00 +17°C° 0 mm 6 mps 762 mmHg 48%
    19:00 +16°C° 0 mm 5 mps 762 mmHg 49%
    20:00 +16°C° 0 mm 5 mps 763 mmHg 48%
    21:00 +15°C° 0 mm 5 mps 763 mmHg 48%
    22:00 +14°C° 0 mm 5 mps 763 mmHg 48%
    23:00 +14°C° 0 mm 4 mps 763 mmHg 47%
    Show more